Time,TemperatureF,DewpointF,PressureIn,WindDirection,WindDirectionDegrees,WindSpeedMPH,WindSpeedGustMPH,Humidity,HourlyPrecipIn,Conditions,Clouds,dailyrainin,SolarRadiationWatts/m^2,SoftwareType,DateUTC
2013-07-27 00:43:00,58.0,45.0,-100.00,SE,127,0.0,1.0,62,0.00,,,0.00,220.000000,,2013-07-27 06:43:00,
2013-07-27 01:01:00,57.0,43.0,-100.00,SE,127,0.0,1.0,60,0.00,,,0.00,220.000000,,2013-07-27 07:01:00,
2013-07-27 02:43:00,53.0,43.0,-100.00,SE,127,0.0,1.0,70,0.00,,,0.00,218.000000,,2013-07-27 08:43:00,
2013-07-27 02:53:00,53.0,43.0,-100.00,SE,127,0.0,0.0,70,0.00,,,0.00,218.000000,,2013-07-27 08:53:00,
2013-07-27 05:32:00,52.0,47.0,-100.00,ESE,116,0.0,1.0,84,0.00,,,0.03,218.000000,,2013-07-27 11:32:00,
2013-07-27 05:52:00,51.0,47.0,-100.00,ESE,116,0.0,1.0,85,0.00,,,0.03,218.000000,,2013-07-27 11:52:00,
2013-07-27 06:02:00,51.0,47.0,-100.00,SW,233,0.0,1.0,85,0.00,,,0.03,218.000000,,2013-07-27 12:02:00,
2013-07-27 06:12:00,50.0,45.0,-100.00,SW,233,0.0,1.0,84,0.00,,,0.03,218.000000,,2013-07-27 12:12:00,
2013-07-27 06:33:00,50.0,46.0,-100.00,SW,233,0.0,1.0,85,0.00,,,0.03,223.000000,,2013-07-27 12:33:00,
2013-07-27 06:43:00,50.0,46.0,-100.00,SW,233,0.0,0.0,85,0.00,,,0.03,230.000000,,2013-07-27 12:43:00,
2013-07-27 06:52:00,50.0,46.0,-100.00,SW,233,0.0,1.0,87,0.00,,,0.03,234.000000,,2013-07-27 12:52:00,
2013-07-27 07:02:00,50.0,47.0,-100.00,SW,234,0.0,0.0,88,0.00,,,0.03,250.000000,,2013-07-27 13:02:00,
2013-07-27 07:44:00,53.0,49.0,-100.00,SW,234,0.0,1.0,85,0.00,,,0.03,374.000000,,2013-07-27 13:44:00,
2013-07-27 08:02:00,54.0,49.0,-100.00,SW,234,0.0,0.0,82,0.00,,,0.03,432.000000,,2013-07-27 14:02:00,
2013-07-27 08:43:00,61.0,48.0,-100.00,SW,231,0.0,2.0,62,0.00,,,0.03,578.000000,,2013-07-27 14:43:00,
2013-07-27 08:53:00,61.0,47.0,-100.00,SW,231,0.0,2.0,59,0.00,,,0.03,617.000000,,2013-07-27 14:53:00,
2013-07-27 09:53:00,64.0,51.0,-100.00,SSW,206,0.0,0.0,62,0.00,,,0.03,348.000000,,2013-07-27 15:53:00,
2013-07-27 10:02:00,63.0,48.0,-100.00,SSW,206,0.0,0.0,58,0.00,,,0.03,364.000000,,2013-07-27 16:02:00,
2013-07-27 10:43:00,62.0,51.0,-100.00,ESE,116,0.0,2.0,67,0.00,,,0.03,369.000000,,2013-07-27 16:43:00,
2013-07-27 10:53:00,62.0,51.0,-100.00,ESE,116,0.0,2.0,67,0.00,,,0.03,366.000000,,2013-07-27 16:53:00,
2013-07-27 11:02:00,63.0,51.0,-100.00,ESE,116,0.0,0.0,65,0.00,,,0.03,381.000000,,2013-07-27 17:02:00,
2013-07-27 11:11:00,63.0,52.0,-100.00,ESE,116,0.0,1.0,67,0.00,,,0.03,390.000000,,2013-07-27 17:11:00,
2013-07-27 11:53:00,62.0,53.0,-100.00,SSE,161,0.0,1.0,72,0.00,,,0.03,322.000000,,2013-07-27 17:53:00,
2013-07-27 12:02:00,62.0,52.0,-100.00,ENE,75,2.0,5.0,70,0.00,,,0.03,441.000000,,2013-07-27 18:02:00,
2013-07-27 12:11:00,62.0,52.0,-100.00,NW,323,3.0,6.0,69,0.00,,,0.03,462.000000,,2013-07-27 18:11:00,
2013-07-27 12:42:00,63.0,53.0,-100.00,SE,140,0.0,3.0,69,0.00,,,0.03,478.000000,,2013-07-27 18:42:00,
2013-07-27 12:52:00,63.0,52.0,-100.00,SE,140,0.0,1.0,68,0.00,,,0.03,480.000000,,2013-07-27 18:52:00,
2013-07-27 13:11:00,65.0,55.0,-100.00,SE,141,0.0,2.0,71,0.00,,,0.03,501.000000,,2013-07-27 19:11:00,
2013-07-27 13:43:00,66.0,55.0,-100.00,SE,143,0.0,1.0,67,0.00,,,0.03,360.000000,,2013-07-27 19:43:00,
2013-07-27 13:52:00,66.0,54.0,-100.00,SE,143,0.0,1.0,66,0.00,,,0.03,345.000000,,2013-07-27 19:52:00,
2013-07-27 14:02:00,65.0,54.0,-100.00,SE,143,1.0,2.0,68,0.00,,,0.03,367.000000,,2013-07-27 20:02:00,
2013-07-27 15:01:00,66.0,51.0,-100.00,NNW,342,2.0,7.0,58,0.00,,,0.03,703.000000,,2013-07-27 21:01:00,
2013-07-27 15:32:00,65.0,48.0,-100.00,NE,43,3.0,9.0,55,0.00,,,0.03,772.000000,,2013-07-27 21:32:00,
2013-07-27 15:42:00,66.0,49.0,-100.00,NE,50,2.0,7.0,55,0.00,,,0.03,698.000000,,2013-07-27 21:42:00,
2013-07-27 15:52:00,66.0,50.0,-100.00,NE,53,1.0,8.0,56,0.00,,,0.03,582.000000,,2013-07-27 21:52:00,
2013-07-27 16:02:00,66.0,49.0,-100.00,NNE,23,1.0,4.0,54,0.00,,,0.03,536.000000,,2013-07-27 22:02:00,
2013-07-27 16:12:00,66.0,49.0,-100.00,East,81,1.0,3.0,55,0.00,,,0.03,552.000000,,2013-07-27 22:12:00,
2013-07-27 16:32:00,67.0,50.0,-100.00,NNE,21,2.0,4.0,55,0.00,,,0.03,833.000000,,2013-07-27 22:32:00,
2013-07-27 17:02:00,68.0,49.0,-100.00,East,98,3.0,5.0,51,0.00,,,0.03,826.000000,,2013-07-27 23:02:00,
2013-07-27 17:32:00,67.0,49.0,-100.00,ENE,75,0.0,2.0,52,0.00,,,0.03,410.000000,,2013-07-27 23:32:00,
2013-07-27 17:52:00,67.0,47.0,-100.00,NE,56,2.0,5.0,49,0.00,,,0.03,826.000000,,2013-07-27 23:52:00,
2013-07-27 18:02:00,68.0,45.0,-100.00,NW,312,1.0,5.0,44,0.00,,,0.03,689.000000,,2013-07-28 00:02:00,
2013-07-27 18:12:00,69.0,47.0,-100.00,NW,314,0.0,4.0,46,0.00,,,0.03,388.000000,,2013-07-28 00:12:00,
2013-07-27 18:32:00,67.0,49.0,-100.00,NW,320,1.0,3.0,53,0.00,,,0.03,294.000000,,2013-07-28 00:32:00,
2013-07-27 18:52:00,66.0,54.0,-100.00,NW,320,0.0,1.0,66,0.00,,,0.03,248.000000,,2013-07-28 00:52:00,
2013-07-27 19:02:00,65.0,54.0,-100.00,WSW,256,1.0,3.0,67,0.00,,,0.03,251.000000,,2013-07-28 01:02:00,
2013-07-27 19:12:00,63.0,54.0,-100.00,SW,216,0.0,1.0,72,0.02,,,0.05,265.000000,,2013-07-28 01:12:00,
2013-07-27 19:22:00,61.0,53.0,-100.00,SW,216,0.0,3.0,76,0.02,,,0.05,272.000000,,2013-07-28 01:22:00,
2013-07-27 19:43:00,60.0,54.0,-100.00,SSE,151,0.0,3.0,81,0.02,,,0.05,248.000000,,2013-07-28 01:43:00,
2013-07-27 19:53:00,60.0,54.0,-100.00,South,189,1.0,3.0,81,0.02,,,0.05,253.000000,,2013-07-28 01:53:00,
2013-07-27 20:02:00,60.0,54.0,-100.00,SSW,206,0.0,6.0,80,0.02,,,0.05,246.000000,,2013-07-28 02:02:00,
2013-07-27 20:12:00,60.0,54.0,-100.00,South,179,0.0,3.0,80,0.01,,,0.05,241.000000,,2013-07-28 02:12:00,
2013-07-27 20:32:00,59.0,54.0,-100.00,South,179,0.0,1.0,82,0.00,,,0.05,232.000000,,2013-07-28 02:32:00,
2013-07-27 20:53:00,58.0,54.0,-100.00,South,190,0.0,2.0,85,0.00,,,0.05,227.000000,,2013-07-28 02:53:00,
2013-07-27 21:02:00,58.0,53.0,-100.00,South,185,0.0,2.0,83,0.00,,,0.05,227.000000,,2013-07-28 03:02:00,
2013-07-27 21:11:00,58.0,53.0,-100.00,South,185,0.0,1.0,83,0.00,,,0.05,225.000000,,2013-07-28 03:11:00,
2013-07-27 21:42:00,57.0,53.0,-100.00,South,184,0.0,0.0,86,0.00,,,0.05,221.000000,,2013-07-28 03:42:00,
2013-07-27 22:22:00,57.0,53.0,-100.00,South,185,1.0,2.0,87,0.00,,,0.05,221.000000,,2013-07-28 04:22:00,
2013-07-27 22:42:00,56.0,52.0,-100.00,South,184,0.0,0.0,88,0.00,,,0.05,221.000000,,2013-07-28 04:42:00,
2013-07-27 22:53:00,56.0,52.0,-100.00,South,184,0.0,0.0,88,0.00,,,0.05,221.000000,,2013-07-28 04:53:00,
2013-07-27 23:02:00,56.0,52.0,-100.00,South,184,0.0,1.0,88,0.00,,,0.05,221.000000,,2013-07-28 05:02:00,
2013-07-27 23:12:00,56.0,53.0,-100.00,South,184,0.0,1.0,89,0.00,,,0.05,221.000000,,2013-07-28 05:12:00,
2013-07-27 23:22:00,56.0,53.0,-100.00,South,184,0.0,0.0,89,0.00,,,0.05,221.000000,,2013-07-28 05:22:00,
2013-07-27 23:43:00,54.0,51.0,-100.00,South,184,0.0,0.0,89,0.00,,,0.05,221.000000,,2013-07-28 05:43:00,
2013-07-27 23:52:00,54.0,51.0,-100.00,South,184,0.0,0.0,89,0.00,,,0.05,221.000000,,2013-07-28 05:52:00,